Skip Page Navigation
NASA JPL Caltech
NASA Logo - Jet Propulsion Laboratory + View the NASA Portal
+ Near-Earth Object (NEO) Program
Search JPL
JPL Home Earth Solar System Stars & Galaxies Technology
JPL Solar System Dynamics
BODIES ORBITS EPHEMERIDES TOOLS PHYSICAL DATA DISCOVERY FAQ SITE MAP
JPL Small-Body Database Browser
Search: [ help ]  
5130 Ilioneus (1989 SC7)
Classification: Jupiter Trojan          SPK-ID: 2005130
Ephemeris | Orbit Diagram | Orbital Elements | Physical Parameters | Discovery Circumstances ]

[ hide orbit diagram ]
Orbit Diagram
Note: Make sure you have Java enabled on your browser to see the applet. This applet is provided as a 3D orbit visualization tool. The applet was implemented using 2-body methods, and hence should not be used for determining accurate long-term trajectories (over several years or decades) or planetary encounter circumstances. For accurate long-term ephemerides, please instead use our Horizons system.
Orbit Viewer

Additional Notes: the orbits shown in the applet are color coded. The planets are white lines, and the asteroid/comet is a blue line. The bright white line indicates the portion of the orbit that is above the ecliptic plane, and the darker portion is below the ecliptic plane. Likewise for the asteroid/comet orbit, the light blue indicates the portion above the ecliptic plane, and the dark blue the portion below the ecliptic plane.

Orbit Viewer applet originally written and kindly provided by Osamu Ajiki (AstroArts), and further modified by Ron Baalke (JPL).


Orbital Elements at Epoch 2456400.5 (2013-Apr-18.0) TDB
Reference: MPO250257 (heliocentric ecliptic J2000)
 Element Value Uncertainty (1-sigma)   Units 
e 0.0112664 n/a  
a 5.2239906 n/a AU
q 5.1651350 n/a AU
i 15.72493 n/a deg
node 242.52807 n/a deg
peri 114.45700 n/a deg
M 355.97762 n/a deg
tp 2456449.2284494
(2013-Jun-05.72844940)
n/a JED
period 4361.1597535
11.94
n/a
n/a
d
yr
n 0.08254685 n/a deg/d
Q 5.2828462 n/a AU
  Orbit Determination Parameters
   # obs. used (total)      733  
   first obs. used      1955-??-??  
   last obs. used      2012-12-11  
   # oppositions      20  
   planetary ephem.      DE403  
   condition code      0  
   fit RMS      0.54  
   data source      MPC:mpn  
   producer      MPCLINUX  

Additional Information
 T_jup = 2.925 
 MPC Jupiter Trojan 

Ephemeris | Orbit Diagram | Orbital Elements | Physical Parameters | Discovery Circumstances ]

Physical Parameter Table
Parameter Symbol Value Units Sigma Reference Notes
absolute magnitude H 9.80 mag n/a IRAS-A-FPA-3-RDR-IMPS-V6.0 IRAS observations used: 2
diameter diameter 59.40 km 5.4 IRAS-A-FPA-3-RDR-IMPS-V6.0 IRAS observations used: 2
rotation period rot_per 14.768 h n/a Asteroid Lightcurve DataBase (Rev. 2013-May-01) Published Reference List:
[Mottola, S.; Di Martino, M.; Erikson, A.; Gonano-Beurer, M.; et al. (2011) Astron. J. 141, A170.]
geometric albedo albedo 0.0602   0.013 IRAS-A-FPA-3-RDR-IMPS-V6.0 IRAS observations used: 2

5130 Ilioneus (1989 SC7)          Discovered 1989-Sep-30 by Shoemaker, C. S. at Palomar (675)
Reference: DISCOVERY.DBLast Updated: 2003-08-29

Alternate Designations
 1989 SC7 = 1990 VE8 
Ephemeris | Orbit Diagram | Orbital Elements | Physical Parameters | Discovery Circumstances ]
ABOUT SSD CREDITS/AWARDS PRIVACY/COPYRIGHT GLOSSARY LINKS
FirstGov 2013-May-25 18:42 UT
(server date/time)  
NASA Home Page
Site Manager:   Donald K. Yeomans
Webmaster  Alan B. Chamberlin